This is the latest recevied weather packets stored in our database for station/object KD0RIH. If no packets are shown the sender has not sent any weather packets the latest 10 day(s).
| Time | Temp. | Humidity | Pressure | Rain* | Wind** | Luminosity | Snow |
|---|---|---|---|---|---|---|---|
| 1777815987 | 13.89° C | 48% | 1013.1 hPa | 0 mm | - | 243 W/m² | - |
| 1777815684 | 13.89° C | 48% | 1013.3 hPa | 0 mm | - | 322 W/m² | - |
| 1777815381 | 13.89° C | 48% | 1013.3 hPa | 0 mm | - | 287 W/m² | - |
| 1777815078 | 13.33° C | 50% | 1013.2 hPa | 0 mm | - | 347 W/m² | - |
| 1777814774 | 13.33° C | 48% | 1013.1 hPa | 0 mm | - | 330 W/m² | - |
| 1777814471 | 12.78° C | 51% | 1013.3 hPa | 0 mm | - | 313 W/m² | - |
| 1777814169 | 12.78° C | 50% | 1013.5 hPa | 0 mm | - | 291 W/m² | - |
| 1777813865 | 12.78° C | 50% | 1013.3 hPa | 0 mm | - | 123 W/m² | - |
| 1777813563 | 12.78° C | 50% | 1013.6 hPa | 0 mm | - | 198 W/m² | - |
| 1777813261 | 12.78° C | 51% | 1013.9 hPa | 0 mm | - | 113 W/m² | - |
| 1777812958 | 12.78° C | 51% | 1013.8 hPa | 0 mm | - | 221 W/m² | - |
| 1777812655 | 12.22° C | 50% | 1013.8 hPa | 0 mm | - | 162 W/m² | - |
| 1777812351 | 12.22° C | 51% | 1013.9 hPa | 0 mm | - | 196 W/m² | - |
| 1777812050 | 12.22° C | 52% | 1013.6 hPa | 0 mm | - | 167 W/m² | - |
| 1777811748 | 11.67° C | 52% | 1013.9 hPa | 0 mm | - | 159 W/m² | - |
| 1777811444 | 11.67° C | 52% | 1014.2 hPa | 0 mm | - | 142 W/m² | - |
| 1777811141 | 11.11° C | 54% | 1014.2 hPa | 0 mm | - | 114 W/m² | - |
| 1777810838 | 11.11° C | 55% | 1014.1 hPa | 0 mm | - | 101 W/m² | - |
| 1777810535 | 10.56° C | 56% | 1014.1 hPa | 0 mm | - | 86 W/m² | - |
| 1777810231 | 10.56° C | 57% | 1014.3 hPa | 0 mm | - | 75 W/m² | - |
| 1777809927 | 10° C | 58% | 1014.2 hPa | 0 mm | - | 59 W/m² | - |
| 1777809626 | 10° C | 58% | 1014.1 hPa | 0 mm | - | 46 W/m² | - |
| 1777809323 | 10° C | 59% | 1014.3 hPa | 0 mm | - | 51 W/m² | - |
| 1777809020 | 9.44° C | 59% | 1014.4 hPa | 0 mm | - | 46 W/m² | - |
| 1777808718 | 9.44° C | 60% | 1014.4 hPa | 0 mm | - | 32 W/m² | - |
* Rain latest hour (hover to see other rain measurements)
** Current wind speed in m/s (hover to see current wind gust speed)